星链-5923 (STARLINK-5923 )

导读

STARLINK-5923是美国SpaceX公司星链星座的成员卫星,于2023年5月10日发射升空。作为星链星座低地球轨道组网的一部分,它旨在为全球提供高速低延迟的宽带互联网服务,重点覆盖传统基础设施难以抵达的偏远、乡村区域,助力缩小数字鸿沟,服务全球各类用户的联网需求。卫星入轨后参与星座组网,持续推进星链项目全球覆盖的建设目标。

基本信息
目录编号:
56489
目录名称:
STARLINK-5923
国际标识:
2023-064AT
轨道中心:
EARTH
卫星名称:
星链-5923
卫星全名:
星链-5923 (STARLINK-5923 )
卫星状态:
在轨 (已飞行1221 天)
发射日期:
2023-05-10 UTC
国别 :
美国 (US)
星等 :
--
该卫星已列入 空间交会检测服务 Space Conjunction Data Service (SCDS) ,当前飞行风险评估等级: 无高风险
轨道信息
数据来源 国际轨道数据
星历时间: 2026-09-11T21:27:58+0800
1天前
查看轨道信息
半长轴: 6950.19km
偏心率: 0.0003414
轨道倾角: 70.001°
近地点辐角 273.301°
升交点赤经 355.834°
平近点角 86.776°
近地点: 569.68km
远地点: 574.426km
周期: 96.107分钟
每日圈数: 14.98331
详细信息
固有亮度:
5
最大亮度:
2.5
卫星平台:
Starlink v1.5
覆盖范围:
全球
运营商:
太空探索技术公司
运营商所在国:
美国
制造商(研发单位):
太空探索技术公司
制造商所在国:
美国
使用方式:
暂无
卫星简介
星链(Starlink)计划是由太空探索技术公司(SpaceX)提出的一个巨型低轨卫星互联网星座项目,计划在2019年至2024年间在太空搭建由约1.2万颗卫星组成的“星链”网络,其中1584颗将部署在地球上空550千米处的近地轨道,并从2020年开始工作。该卫星仍在工作。
2D轨道图
3D轨道图
轨道高度分析图
轨道倾角分析图
轨道综合分析图
查看轨道综合分析图
交会数据列表
事件ID 空间交会对象 最接近时刻(TCA) 交会距离 交会风险概率(CRP) 交会风险指数(CRI) 操作
CDM_260914-050702-056505-648923
2026-09-14T
05:07:49+0000
1.101 km
极远距离
1.674148E-5 中风险 0.59
CDM_260913-091405-648906-324725
EZIE-A (63247)
2026-09-13T
09:14:07+0000
2.094 km
极远距离
2.547169E-6 低风险 0.43
CDM_260912-180005-648906-324826
2026-09-12T
18:00:19+0000
2.258 km
极远距离
2.135531E-6 低风险 0.42
CDM_260912-184805-648906-324825
2026-09-12T
18:48:24+0000
2.541 km
极远距离
1.699067E-6 低风险 0.4
与全量物体交会距离演化趋势
与全量物体交会风险概率演化趋势